GFSNIL_prec_snow_330.txt.gz
Snowfall_Accumulation
0.0 0.0 0.0 0.0 0.0 0.0 0.0 0.0 0.0 0.0 0.0 0.0 0.0 0.0 0.0 0.0 0.0 0.0 0.0 0.0 0.0 0.0
0.0 0.0 0.0 0.0 0.0 0.0 0.0 0.0 0.0 0.0 0.0 0.0 0.0 0.0 0.0 0.0 0.0 0.0 0.0 0.0 0.0 0.0
0.0 0.0 0.0 0.0 0.0 0.0 0.0 0.0 0.0 0.0 0.0 0.0 0.0 0.0 0.0 0.0 0.0 0.0 0.0 0.0 0.0 0.0
0.0 0.0 0.0 0.0 0.0 0.0 0.0 0.0 0.0 0.0 0.0 0.0 0.0 0.0 0.0 0.0 0.0 0.0 0.0 0.0 0.0 0.0
0.0 0.0 0.0 0.0 0.0 0.0 0.0 0.0 0.0 0.0 0.0 0.0 0.0 0.0 0.0 0.0 0.0 0.0 0.0 0.0 0.0 0.0
0.0 0.0 0.0 0.0 0.0 0.0 0.0 0.0 0.0 0.0 0.0 0.0 0.0 0.0 0.0 0.0 0.0 0.0 0.0 0.0 0.0 0.0
0.0 0.0 0.0 0.0 0.0 0.0 0.0 0.0 0.0 0.0 0.0 0.0 0.0 0.0 0.0 0.0 0.0 0.0 0.0 0.0 0.0 0.0
0.0 0.0 0.0 0.0 0.0 0.0 0.0 0.0 0.0 0.0 0.0 0.0 0.0 0.0 0.0 0.2 0.4 0.4 0.4 0.2 0.7 0.4
0.0 0.0 0.0 0.0 0.0 0.0 0.0 0.0 0.0 0.0 0.0 0.0 0.0 0.0 0.3 0.6 1.2 0.8 0.6 0.6 0.7 1.6
0.0 0.0 0.0 0.0 0.0 0.0 0.0 0.0 0.0 0.0 0.2 0.0 0.0 0.0 0.4 1.2 1.9 1.5 3.7 4.2 4.6 3.1
0.0 0.0 0.0 0.0 0.0 0.0 0.0 0.0 0.0 0.0 0.6 0.0 0.0 0.1 3.1 5.3 5.8 4.9 4.8 4.4 3.2 2.4
0.0 0.0 0.0 0.1 0.1 0.1 0.0 1.7 4.9 4.4 5.4 5.9 6.3 3.9 2.8 4.7 5.6 3.9 2.3 0.7 0.0 0.0
2.5 3.9 4.4 3.3 7.3 4.2 2.6 6.5 5.8 6.2 5.6 4.6 3.5 1.7 2.3 2.0 2.8 3.2 3.2 2.1 0.0 0.1
4.1 3.9 3.5 6.0 5.8 3.1 3.2 4.2 4.2 4.5 3.0 2.5 1.0 0.5 0.1 0.6 2.2 2.5 2.3 1.7 1.2 0.0

GFSNIL_prec_snow_336.txt.gz
Snowfall_Accumulation
0.0 0.0 0.0 0.0 0.0 0.0 0.0 0.0 0.0 0.0 0.0 0.0 0.0 0.0 0.0 0.0 0.0 0.0 0.0 0.0 0.0 0.0
0.0 0.0 0.0 0.0 0.0 0.0 0.0 0.0 0.0 0.0 0.0 0.0 0.0 0.0 0.0 0.0 0.0 0.0 0.0 0.0 0.0 0.0
0.0 0.0 0.0 0.0 0.0 0.0 0.0 0.0 0.0 0.0 0.0 0.0 0.0 0.0 0.0 0.0 0.0 0.0 0.0 0.0 0.0 0.0
0.0 0.0 0.0 0.0 0.0 0.0 0.0 0.0 0.0 0.0 0.0 0.0 0.0 0.0 0.0 0.0 0.0 0.0 0.0 0.0 0.0 0.0
0.0 0.0 0.0 0.0 0.0 0.0 0.0 0.0 0.0 0.0 0.0 0.0 0.0 0.0 0.0 0.0 0.0 0.0 0.0 0.0 0.0 0.0
0.0 0.0 0.0 0.0 0.0 0.0 0.0 0.0 0.0 0.0 0.0 0.0 0.0 0.0 0.0 0.0 0.0 0.0 0.0 0.0 0.0 0.0
0.0 0.0 0.0 0.0 0.0 0.0 0.0 0.0 0.0 0.0 0.0 0.0 0.0 0.0 0.0 0.0 0.0 0.0 0.0 0.0 0.0 0.0
0.0 0.0 0.0 0.0 0.0 0.0 0.0 0.0 0.0 0.0 0.0 0.0 0.0 0.0 0.0 0.2 0.4 0.4 0.4 0.2 0.7 0.4
0.0 1.3 0.0 0.0 0.0 0.0 0.0 0.0 0.0 0.0 0.0 0.0 0.0 0.0 0.3 0.6 1.2 0.8 0.6 0.6 0.7 1.6
1.1 1.1 0.0 0.0 0.0 0.0 0.0 0.0 0.0 0.0 0.2 0.0 0.0 0.0 0.4 1.2 1.9 1.5 3.7 4.2 4.6 3.1
4.5 4.6 0.0 0.0 0.0 0.0 0.0 0.0 0.0 0.0 0.6 0.0 0.0 0.1 3.1 5.3 5.8 4.9 4.8 4.4 3.2 2.4
4.8 5.1 4.5 0.1 0.1 0.1 0.0 1.7 4.9 4.4 5.4 5.9 6.3 3.9 2.8 4.7 5.6 3.9 2.3 0.7 0.0 0.0
6.7 9.4 10.2 3.3 7.3 4.2 2.6 6.5 5.8 6.2 5.6 4.6 3.5 1.7 2.3 2.0 2.8 3.2 3.2 2.1 0.0 0.1
7.2 8.7 9.4 12.2 8.4 3.1 3.2 4.2 4.2 4.5 3.0 2.5 1.0 0.5 0.1 0.6 2.2 2.5 2.3 1.7 1.2 0.0

GFSNIL_prec_snow_339.txt.gz
Snowfall_Accumulation
0.0 0.0 0.0 0.0 0.0 0.0 0.0 0.0 0.0 0.0 0.0 0.0 0.0 0.0 0.0 0.0 0.0 0.0 0.0 0.0 0.0 0.0
0.0 0.0 0.0 0.0 0.0 0.0 0.0 0.0 0.0 0.0 0.0 0.0 0.0 0.0 0.0 0.0 0.0 0.0 0.0 0.0 0.0 0.0
0.0 0.0 0.0 0.0 0.0 0.0 0.0 0.0 0.0 0.0 0.0 0.0 0.0 0.0 0.0 0.0 0.0 0.0 0.0 0.0 0.0 0.0
0.0 0.0 0.0 0.0 0.0 0.0 0.0 0.0 0.0 0.0 0.0 0.0 0.0 0.0 0.0 0.0 0.0 0.0 0.0 0.0 0.0 0.0
0.0 0.0 0.0 0.0 0.0 0.0 0.0 0.0 0.0 0.0 0.0 0.0 0.0 0.0 0.0 0.0 0.0 0.0 0.0 0.0 0.0 0.0
0.0 0.0 0.0 0.0 0.0 0.0 0.0 0.0 0.0 0.0 0.0 0.0 0.0 0.0 0.0 0.0 0.0 0.0 0.0 0.0 0.0 0.0
0.0 0.0 0.0 0.0 0.0 0.0 0.0 0.0 0.0 0.0 0.0 0.0 0.0 0.0 0.0 0.0 0.0 0.0 0.0 0.0 0.0 0.0
0.1 0.0 0.0 0.0 0.0 0.0 0.0 0.0 0.0 0.0 0.0 0.0 0.0 0.0 0.0 0.2 0.4 0.4 0.4 0.2 0.7 0.4
0.1 1.5 0.0 0.0 0.0 0.0 0.0 0.0 0.0 0.0 0.0 0.0 0.0 0.0 0.3 0.6 1.2 0.8 0.6 0.6 0.7 1.6
1.4 1.5 0.0 0.0 0.0 0.0 0.0 0.0 0.0 0.0 0.2 0.0 0.0 0.0 0.4 1.2 1.9 1.5 3.7 4.2 4.6 3.1
4.7 4.9 0.0 0.0 0.0 0.0 0.0 0.0 0.0 0.0 0.6 0.0 0.0 0.1 3.1 5.3 5.8 4.9 4.8 4.4 3.2 2.4
5.0 5.4 4.5 0.1 0.1 0.1 0.0 1.7 4.9 4.4 5.4 5.9 6.3 3.9 2.8 4.7 5.6 3.9 2.3 0.7 0.0 0.0
7.1 9.8 10.5 3.3 7.7 5.2 2.6 6.5 5.8 6.2 5.6 4.6 3.5 1.7 2.3 2.0 2.8 3.2 3.2 2.1 0.0 0.1
7.6 9.2 9.8 12.2 8.4 3.5 3.2 4.2 4.2 4.5 3.0 2.5 1.0 0.5 0.1 0.6 2.2 2.5 2.3 1.7 1.2 0.0

GFSNIL_prec_snow_342.txt.gz
Snowfall_Accumulation
0.0 0.0 0.0 0.0 0.0 0.0 0.0 0.0 0.0 0.0 0.0 0.0 0.0 0.0 0.0 0.0 0.0 0.0 0.0 0.0 0.0 0.0
0.0 0.0 0.0 0.0 0.0 0.0 0.0 0.0 0.0 0.0 0.0 0.0 0.0 0.0 0.0 0.0 0.0 0.0 0.0 0.0 0.0 0.0
0.0 0.0 0.0 0.0 0.0 0.0 0.0 0.0 0.0 0.0 0.0 0.0 0.0 0.0 0.0 0.0 0.0 0.0 0.0 0.0 0.0 0.0
0.0 0.0 0.0 0.0 0.0 0.0 0.0 0.0 0.0 0.0 0.0 0.0 0.0 0.0 0.0 0.0 0.0 0.0 0.0 0.0 0.0 0.0
0.0 0.0 0.0 0.0 0.0 0.0 0.0 0.0 0.0 0.0 0.0 0.0 0.0 0.0 0.0 0.0 0.0 0.0 0.0 0.0 0.0 0.0
0.2 0.0 0.0 0.0 0.0 0.0 0.0 0.0 0.0 0.0 0.0 0.0 0.0 0.0 0.0 0.0 0.0 0.0 0.0 0.0 0.0 0.0
0.6 0.2 0.0 0.0 0.0 0.0 0.0 0.0 0.0 0.0 0.0 0.0 0.0 0.0 0.0 0.0 0.0 0.0 0.0 0.0 0.0 0.0
0.9 0.5 0.1 0.0 0.0 0.0 0.0 0.0 0.0 0.0 0.0 0.0 0.0 0.0 0.0 0.2 0.4 0.4 0.4 0.2 0.7 0.4
0.8 2.2 0.3 0.0 0.0 0.0 0.0 0.0 0.0 0.0 0.0 0.0 0.0 0.0 0.3 0.6 1.2 0.8 0.6 0.6 0.7 1.6
2.0 2.2 0.5 0.1 0.1 0.0 0.0 0.0 0.0 0.0 0.2 0.0 0.0 0.0 0.4 1.2 1.9 1.5 3.7 4.2 4.6 3.1
5.3 5.7 0.6 0.2 0.1 0.1 0.0 0.0 0.0 0.0 0.6 0.0 0.0 0.1 3.1 5.3 5.8 4.9 4.8 4.4 3.2 2.4
5.7 6.2 5.1 0.4 0.2 0.2 0.0 1.7 4.9 4.4 5.4 5.9 6.3 3.9 2.8 4.7 5.6 3.9 2.3 0.7 0.0 0.0
7.8 10.7 11.3 3.8 7.9 5.3 2.8 6.5 5.8 6.2 5.6 4.6 3.5 1.7 2.3 2.0 2.8 3.2 3.2 2.1 0.0 0.1
8.2 10.0 10.7 12.8 8.7 3.7 3.6 4.2 4.2 4.5 3.0 2.5 1.0 0.5 0.1 0.6 2.2 2.5 2.3 1.7 1.2 0.0

GFSNIL_prec_snow_345.txt.gz
Snowfall_Accumulation
0.0 0.0 0.0 0.0 0.0 0.0 0.0 0.0 0.0 0.0 0.0 0.0 0.0 0.0 0.0 0.0 0.0 0.0 0.0 0.0 0.0 0.0
0.0 0.0 0.0 0.0 0.0 0.0 0.0 0.0 0.0 0.0 0.0 0.0 0.0 0.0 0.0 0.0 0.0 0.0 0.0 0.0 0.0 0.0
0.0 0.0 0.0 0.0 0.0 0.0 0.0 0.0 0.0 0.0 0.0 0.0 0.0 0.0 0.0 0.0 0.0 0.0 0.0 0.0 0.0 0.0
0.0 0.0 0.0 0.0 0.0 0.0 0.0 0.0 0.0 0.0 0.0 0.0 0.0 0.0 0.0 0.0 0.0 0.0 0.0 0.0 0.0 0.0
0.0 0.0 0.0 0.0 0.0 0.0 0.0 0.0 0.0 0.0 0.0 0.0 0.0 0.0 0.0 0.0 0.0 0.0 0.0 0.0 0.0 0.0
0.2 0.0 0.0 0.0 0.0 0.0 0.0 0.0 0.0 0.0 0.0 0.0 0.0 0.0 0.0 0.0 0.0 0.0 0.0 0.0 0.0 0.0
0.6 0.2 0.0 0.0 0.0 0.0 0.0 0.0 0.0 0.0 0.0 0.0 0.0 0.0 0.0 0.0 0.0 0.0 0.0 0.0 0.0 0.0
0.9 0.5 0.1 0.0 0.0 0.0 0.0 0.0 0.0 0.0 0.0 0.0 0.0 0.0 0.0 0.2 0.4 0.4 0.4 0.2 0.7 0.4
0.8 2.2 0.3 0.0 0.0 0.0 0.0 0.3 0.0 0.0 0.0 0.0 0.0 0.0 0.3 0.6 1.2 0.8 0.6 0.6 0.7 1.6
2.0 2.2 0.5 0.6 0.4 0.2 0.3 0.4 0.0 0.0 0.2 0.0 0.0 0.0 0.4 1.2 1.9 1.5 3.7 4.2 4.6 3.1
5.3 5.7 0.6 0.9 0.6 0.4 0.2 0.5 0.0 0.0 0.6 0.0 0.0 0.1 3.1 5.3 5.8 4.9 4.8 4.4 3.2 2.4
5.7 6.2 5.1 1.1 0.9 0.7 0.3 2.1 5.5 4.4 5.4 5.9 6.3 3.9 2.8 4.7 5.6 3.9 2.3 0.7 0.0 0.0
7.8 10.9 11.7 4.5 8.7 6.1 3.4 6.7 6.3 6.2 5.6 4.6 3.5 1.7 2.3 2.0 2.8 3.2 3.2 2.1 0.0 0.1
8.2 10.3 11.1 13.5 9.6 4.6 4.4 4.5 4.5 4.5 3.0 2.5 1.0 0.5 0.1 0.6 2.2 2.5 2.3 1.7 1.2 0.0

GFSNIL_prec_snow_351.txt.gz
Snowfall_Accumulation
0.0 0.0 0.0 0.0 0.0 0.0 0.0 0.0 0.0 0.0 0.0 0.0 0.0 0.0 0.0 0.0 0.0 0.0 0.0 0.0 0.0 0.0
0.0 0.0 0.0 0.0 0.0 0.0 0.0 0.0 0.0 0.0 0.0 0.0 0.0 0.0 0.0 0.0 0.0 0.0 0.0 0.0 0.0 0.0
0.0 0.0 0.0 0.0 0.0 0.0 0.0 0.0 0.0 0.0 0.0 0.0 0.0 0.0 0.0 0.0 0.0 0.0 0.0 0.0 0.0 0.0
0.0 0.0 0.0 0.0 0.0 0.0 0.0 0.0 0.0 0.0 0.0 0.0 0.0 0.0 0.0 0.0 0.0 0.0 0.0 0.0 0.0 0.0
0.0 0.0 0.0 0.0 0.0 0.0 0.0 0.0 0.0 0.0 0.0 0.0 0.0 0.0 0.0 0.0 0.0 0.0 0.0 0.0 0.0 0.0
0.2 0.0 0.0 0.0 0.0 0.0 0.0 0.0 0.0 0.0 0.0 0.0 0.0 0.0 0.0 0.0 0.0 0.0 0.0 0.0 0.0 0.0
0.6 0.2 0.0 0.0 0.0 0.0 0.0 0.0 0.0 0.0 0.0 0.0 0.0 0.0 0.0 0.0 0.0 0.0 0.0 0.0 0.0 0.0
0.9 0.5 0.1 0.0 0.0 0.0 0.0 0.0 0.0 0.0 0.0 0.0 0.0 0.0 0.0 0.2 0.4 0.4 0.4 0.2 0.7 0.4
0.8 2.2 0.3 0.0 0.0 0.0 0.0 0.3 0.0 0.0 0.0 0.0 0.0 0.0 0.3 0.6 1.2 0.8 0.6 0.6 0.7 1.6
2.0 2.2 0.5 0.6 0.4 0.2 0.3 0.4 0.0 0.0 0.2 0.0 0.0 0.0 0.4 1.2 1.9 1.5 3.7 4.2 4.6 3.1
5.3 5.7 0.6 0.9 0.6 0.4 0.2 0.5 0.0 0.0 0.6 0.0 0.0 0.1 3.1 5.3 5.8 4.9 4.8 4.4 3.2 2.4
5.7 6.2 5.1 1.1 0.9 0.7 0.3 2.1 5.7 4.4 5.4 5.9 6.3 3.9 2.8 4.7 5.6 3.9 2.3 0.7 0.0 0.0
7.8 10.9 11.7 4.5 8.7 6.1 3.6 7.0 6.6 6.2 5.6 5.3 4.3 1.7 2.3 2.0 2.8 3.2 3.2 2.1 0.0 0.1
8.2 10.3 11.1 13.5 9.6 4.6 4.7 4.8 4.7 5.1 3.0 3.1 1.8 0.5 0.1 0.6 2.2 2.5 2.3 1.7 1.2 0.0

GFSNIL_prec_snow_354.txt.gz
Snowfall_Accumulation
0.0 0.0 0.0 0.0 0.0 0.0 0.0 0.0 0.0 0.0 0.0 0.0 0.0 0.0 0.0 0.0 0.0 0.0 0.0 0.0 0.0 0.0
0.0 0.0 0.0 0.0 0.0 0.0 0.0 0.0 0.0 0.0 0.0 0.0 0.0 0.0 0.0 0.0 0.0 0.0 0.0 0.0 0.0 0.0
0.0 0.0 0.0 0.0 0.0 0.0 0.0 0.0 0.0 0.0 0.0 0.0 0.0 0.0 0.0 0.0 0.0 0.0 0.0 0.0 0.0 0.0
0.0 0.0 0.0 0.0 0.0 0.0 0.0 0.0 0.0 0.0 0.0 0.0 0.0 0.0 0.0 0.0 0.0 0.0 0.0 0.0 0.0 0.0
0.0 0.0 0.0 0.0 0.0 0.0 0.0 0.0 0.0 0.0 0.0 0.0 0.0 0.0 0.0 0.0 0.0 0.0 0.0 0.0 0.0 0.0
0.2 0.0 0.0 0.0 0.0 0.0 0.0 0.0 0.0 0.0 0.0 0.0 0.0 0.0 0.0 0.0 0.0 0.0 0.0 0.0 0.0 0.0
0.6 0.2 0.0 0.0 0.0 0.0 0.0 0.0 0.0 0.0 0.0 0.0 0.0 0.0 0.0 0.0 0.0 0.0 0.0 0.0 0.0 0.0
0.9 0.5 0.1 0.0 0.0 0.0 0.0 0.0 0.0 0.0 0.0 0.0 0.0 0.0 0.0 0.2 0.4 0.4 0.4 0.2 0.7 0.4
0.8 2.2 0.3 0.0 0.0 0.0 0.0 0.3 0.0 0.0 0.0 0.0 0.0 0.0 0.3 0.6 1.2 1.2 0.6 0.6 0.7 1.6
2.0 2.2 0.5 0.6 0.4 0.2 0.3 0.4 0.0 0.0 0.2 0.0 0.0 0.0 0.4 1.2 1.9 1.5 3.7 4.2 4.6 3.1
5.3 5.7 0.6 0.9 0.6 0.4 0.2 0.5 0.0 0.0 0.6 0.0 0.0 0.1 3.1 5.3 5.8 4.9 4.8 4.4 3.2 2.4
5.7 6.2 5.1 1.1 0.9 0.7 0.3 2.1 5.7 4.4 5.4 5.9 6.3 3.9 2.8 4.7 5.6 3.9 2.3 0.7 0.0 0.0
7.8 10.9 11.7 4.5 8.7 6.1 3.6 7.0 6.6 6.2 5.6 5.3 4.3 1.7 2.3 2.0 2.8 3.5 3.2 2.1 0.0 0.1
8.2 10.3 11.1 13.5 9.6 4.6 4.7 4.8 4.7 5.1 3.0 3.1 1.8 0.5 0.1 0.6 2.2 2.7 2.8 2.6 1.2 0.0

GFSNIL_prec_snow_357.txt.gz
Snowfall_Accumulation
0.0 0.0 0.0 0.0 0.0 0.0 0.0 0.0 0.0 0.0 0.0 0.0 0.0 0.0 0.0 0.0 0.0 0.0 0.0 0.0 0.0 0.0
0.0 0.0 0.0 0.0 0.0 0.0 0.0 0.0 0.0 0.0 0.0 0.0 0.0 0.0 0.0 0.0 0.0 0.0 0.0 0.0 0.0 0.0
0.0 0.0 0.0 0.0 0.0 0.0 0.0 0.0 0.0 0.0 0.0 0.0 0.0 0.0 0.0 0.0 0.0 0.0 0.0 0.0 0.0 0.0
0.0 0.0 0.0 0.0 0.0 0.0 0.0 0.0 0.0 0.0 0.0 0.0 0.0 0.0 0.0 0.0 0.0 0.0 0.0 0.0 0.0 0.0
0.0 0.0 0.0 0.0 0.0 0.0 0.0 0.0 0.0 0.0 0.0 0.0 0.0 0.0 0.0 0.0 0.0 0.0 0.0 0.0 0.0 0.0
0.2 0.0 0.0 0.0 0.0 0.0 0.0 0.0 0.0 0.0 0.0 0.0 0.0 0.0 0.0 0.0 0.0 0.0 0.0 0.0 0.0 0.0
0.6 0.2 0.0 0.0 0.0 0.0 0.0 0.0 0.0 0.0 0.0 0.0 0.0 0.0 0.0 0.0 0.0 0.0 0.0 0.0 0.0 0.0
0.9 0.5 0.1 0.0 0.0 0.0 0.0 0.0 0.0 0.0 0.0 0.0 0.0 0.0 0.0 0.2 0.4 0.4 0.4 0.2 0.7 0.4
0.8 2.2 0.3 0.0 0.0 0.0 0.0 0.3 0.0 0.0 0.0 0.0 0.0 0.0 0.3 0.6 1.2 1.2 0.6 0.6 0.7 1.6
2.0 2.2 0.5 0.6 0.4 0.2 0.3 0.4 0.0 0.0 0.2 0.0 0.0 0.0 0.4 1.2 1.9 1.5 3.7 4.2 4.6 3.1
5.3 5.7 0.6 0.9 0.6 0.4 0.2 0.5 0.0 0.0 0.6 0.0 0.0 0.1 3.1 5.3 5.8 4.9 4.8 4.4 3.2 2.4
5.7 6.2 5.1 1.1 0.9 0.7 0.3 2.1 5.7 4.4 5.4 5.9 6.3 3.9 2.8 4.7 5.6 3.9 2.3 0.7 0.0 0.0
7.8 10.9 11.7 4.5 8.7 6.1 3.6 7.0 6.6 6.2 5.6 5.3 4.3 1.7 2.3 2.0 2.8 3.5 3.2 2.1 0.0 0.1
8.2 10.3 11.1 13.5 9.6 4.6 4.7 4.8 4.7 5.1 3.0 3.1 1.8 0.5 0.1 0.6 2.2 2.8 2.9 2.6 1.2 0.1

GFSNIL_prec_snow_363.txt.gz
Snowfall_Accumulation
0.0 0.0 0.0 0.0 0.0 0.0 0.0 0.0 0.0 0.0 0.0 0.0 0.0 0.0 0.0 0.0 0.0 0.0 0.0 0.0 0.0 0.0
0.0 0.0 0.0 0.0 0.0 0.0 0.0 0.0 0.0 0.0 0.0 0.0 0.0 0.0 0.0 0.0 0.0 0.0 0.0 0.0 0.0 0.0
0.0 0.0 0.0 0.0 0.0 0.0 0.0 0.0 0.0 0.0 0.0 0.0 0.0 0.0 0.0 0.0 0.0 0.0 0.0 0.0 0.0 0.0
0.0 0.0 0.0 0.0 0.0 0.0 0.0 0.0 0.0 0.0 0.0 0.0 0.0 0.0 0.0 0.0 0.0 0.0 0.0 0.0 0.0 0.0
0.0 0.0 0.0 0.0 0.0 0.0 0.0 0.0 0.0 0.0 0.0 0.0 0.0 0.0 0.0 0.0 0.0 0.0 0.0 0.0 0.0 0.0
0.2 0.0 0.0 0.0 0.0 0.0 0.0 0.0 0.0 0.0 0.0 0.0 0.0 0.0 0.0 0.0 0.0 0.0 0.0 0.0 0.3 0.0
0.6 0.2 0.0 0.0 0.0 0.0 0.0 0.0 0.0 0.0 0.0 0.0 0.0 0.0 0.0 0.0 0.0 0.0 0.0 0.0 0.0 0.3
0.9 0.5 0.1 0.0 0.0 0.0 0.0 0.0 0.0 0.0 0.0 0.0 0.0 0.0 0.0 0.2 0.4 0.4 0.4 0.2 0.7 0.4
0.8 2.2 0.3 0.0 0.0 0.0 0.0 0.3 0.0 0.0 0.0 0.0 0.0 0.0 0.3 0.6 1.2 1.2 0.6 0.6 0.7 1.6
2.0 2.2 0.5 0.6 0.4 0.2 0.3 0.4 0.0 0.0 0.2 0.0 0.0 0.0 0.4 1.2 1.9 1.5 3.7 4.2 4.6 3.1
5.3 5.7 0.6 0.9 0.6 0.4 0.2 0.5 0.0 0.0 0.6 0.0 0.0 0.1 3.1 5.3 5.8 4.9 4.8 4.4 3.2 2.4
5.7 6.2 5.1 1.1 0.9 0.7 0.3 2.1 5.7 4.4 5.4 5.9 6.3 3.9 2.8 4.7 5.6 3.9 2.3 0.7 0.0 0.0
7.8 10.9 11.7 4.5 8.7 6.1 3.6 7.0 6.6 6.2 5.6 5.3 4.3 1.7 2.3 2.0 2.8 3.5 3.2 2.1 0.0 0.1
8.2 10.3 11.1 13.5 9.6 4.6 4.7 4.8 4.7 5.1 3.0 3.1 1.8 0.5 0.1 0.6 2.2 2.8 2.9 2.6 1.2 0.1